Wetterdaten: Dienstag, 31.08.2021
Datum Zeit Temp. Auen Feucht Auen Luftdruck Regen Richtung Richtung Windben
31.08.2021 00:00 11,6 C 91 % 1017,6 hPa 0,0 mm W 268 3,2 km/h (1 Bft)
31.08.2021 00:05 11,6 C 91 % 1017,7 hPa 0,0 mm W 268 3,2 km/h (1 Bft)
31.08.2021 00:10 11,5 C 91 % 1017,7 hPa 0,0 mm W 268 4,8 km/h (1 Bft)
31.08.2021 00:15 11,4 C 91 % 1017,7 hPa 0,0 mm W 268 3,2 km/h (1 Bft)
31.08.2021 00:20 11,4 C 91 % 1017,7 hPa 0,0 mm W 268 3,2 km/h (1 Bft)
31.08.2021 00:25 11,3 C 91 % 1017,6 hPa 0,0 mm W 268 3,2 km/h (1 Bft)
31.08.2021 00:30 11,3 C 91 % 1017,7 hPa 0,0 mm W 268 1,6 km/h (1 Bft)
31.08.2021 00:35 11,3 C 91 % 1017,7 hPa 0,0 mm W 268 0,0 km/h (0 Bft)
31.08.2021 00:40 11,3 C 91 % 1017,8 hPa 0,0 mm W 268 0,0 km/h (0 Bft)
31.08.2021 00:45 11,3 C 91 % 1017,8 hPa 0,0 mm W 268 0,0 km/h (0 Bft)
31.08.2021 00:50 11,3 C 91 % 1017,7 hPa 0,0 mm W 268 0,0 km/h (0 Bft)
31.08.2021 00:55 11,2 C 91 % 1017,7 hPa 0,0 mm W 268 0,0 km/h (0 Bft)
31.08.2021 01:00 11,2 C 91 % 1017,7 hPa 0,0 mm W 268 0,0 km/h (0 Bft)
31.08.2021 01:05 11,2 C 91 % 1017,7 hPa 0,0 mm W 268 1,6 km/h (1 Bft)
31.08.2021 01:10 11,2 C 91 % 1017,7 hPa 0,0 mm W 268 0,0 km/h (0 Bft)
31.08.2021 01:15 11,2 C 91 % 1017,6 hPa 0,0 mm W 268 0,0 km/h (0 Bft)
31.08.2021 01:20 11,2 C 91 % 1017,7 hPa 0,0 mm W 268 0,0 km/h (0 Bft)
31.08.2021 01:25 11,2 C 91 % 1017,7 hPa 0,0 mm W 268 3,2 km/h (1 Bft)
31.08.2021 01:30 11,2 C 91 % 1017,7 hPa 0,0 mm W 268 4,8 km/h (1 Bft)
31.08.2021 01:35 11,2 C 91 % 1017,7 hPa 0,0 mm W 268 4,8 km/h (1 Bft)
31.08.2021 01:40 11,2 C 91 % 1017,7 hPa 0,0 mm W 268 3,2 km/h (1 Bft)
31.08.2021 01:45 11,2 C 91 % 1017,7 hPa 0,0 mm W 268 1,6 km/h (1 Bft)
31.08.2021 01:50 11,2 C 91 % 1017,7 hPa 0,0 mm W 268 3,2 km/h (1 Bft)
31.08.2021 01:55 11,3 C 91 % 1017,7 hPa 0,0 mm W 268 3,2 km/h (1 Bft)
31.08.2021 02:00 11,3 C 91 % 1017,7 hPa 0,0 mm W 268 3,2 km/h (1 Bft)
31.08.2021 02:05 11,3 C 91 % 1017,7 hPa 0,0 mm W 268 1,6 km/h (1 Bft)
31.08.2021 02:10 11,3 C 91 % 1017,7 hPa 0,0 mm W 268 1,6 km/h (1 Bft)
31.08.2021 02:15 11,3 C 91 % 1017,6 hPa 0,0 mm W 268 0,0 km/h (0 Bft)
31.08.2021 02:20 11,3 C 91 % 1017,6 hPa 0,0 mm W 268 0,0 km/h (0 Bft)
31.08.2021 02:25 11,3 C 91 % 1017,6 hPa 0,0 mm W 268 1,6 km/h (1 Bft)
31.08.2021 02:30 11,4 C 91 % 1017,6 hPa 0,0 mm W 268 0,0 km/h (0 Bft)
31.08.2021 02:35 11,4 C 91 % 1017,6 hPa 0,0 mm W 268 0,0 km/h (0 Bft)
31.08.2021 02:40 11,4 C 91 % 1017,5 hPa 0,0 mm W 268 0,0 km/h (0 Bft)
31.08.2021 02:45 11,4 C 91 % 1017,6 hPa 0,0 mm W 268 0,0 km/h (0 Bft)
31.08.2021 02:50 11,4 C 91 % 1017,6 hPa 0,0 mm W 268 0,0 km/h (0 Bft)
31.08.2021 02:55 11,4 C 92 % 1017,7 hPa 0,0 mm W 268 0,0 km/h (0 Bft)
31.08.2021 03:00 11,4 C 92 % 1017,8 hPa 0,0 mm W 268 0,0 km/h (0 Bft)
31.08.2021 03:05 11,5 C 92 % 1017,7 hPa 0,0 mm W 268 0,0 km/h (0 Bft)
31.08.2021 03:10 11,5 C 92 % 1017,7 hPa 0,2 mm W 268 0,0 km/h (0 Bft)
31.08.2021 03:15 11,5 C 92 % 1017,7 hPa 0,0 mm W 268 0,0 km/h (0 Bft)
31.08.2021 03:20 11,5 C 92 % 1017,6 hPa 0,0 mm W 268 0,0 km/h (0 Bft)
31.08.2021 03:25 11,5 C 92 % 1017,7 hPa 0,0 mm W 268 0,0 km/h (0 Bft)
31.08.2021 03:30 11,6 C 92 % 1017,7 hPa 0,0 mm W 268 0,0 km/h (0 Bft)
31.08.2021 03:35 11,6 C 92 % 1017,6 hPa 0,0 mm W 268 0,0 km/h (0 Bft)
31.08.2021 03:40 11,6 C 92 % 1017,6 hPa 0,0 mm W 268 0,0 km/h (0 Bft)
31.08.2021 03:45 11,6 C 92 % 1017,6 hPa 0,0 mm W 268 0,0 km/h (0 Bft)
31.08.2021 03:50 11,6 C 92 % 1017,7 hPa 0,0 mm W 268 0,0 km/h (0 Bft)
31.08.2021 03:55 11,6 C 92 % 1017,6 hPa 0,0 mm W 268 3,2 km/h (1 Bft)
31.08.2021 04:00 11,7 C 92 % 1017,7 hPa 0,0 mm W 268 3,2 km/h (1 Bft)
31.08.2021 04:05 11,7 C 92 % 1017,6 hPa 0,0 mm W 268 3,2 km/h (1 Bft)
31.08.2021 04:10 11,7 C 92 % 1017,5 hPa 0,0 mm W 268 3,2 km/h (1 Bft)
31.08.2021 04:15 11,7 C 92 % 1017,5 hPa 0,0 mm W 268 6,4 km/h (2 Bft)
31.08.2021 04:20 11,7 C 92 % 1017,5 hPa 0,0 mm W 268 4,8 km/h (1 Bft)
31.08.2021 04:25 11,7 C 92 % 1017,5 hPa 0,0 mm W 268 6,4 km/h (2 Bft)
31.08.2021 04:30 11,8 C 92 % 1017,5 hPa 0,0 mm W 268 3,2 km/h (1 Bft)
31.08.2021 04:35 11,8 C 92 % 1017,5 hPa 0,0 mm W 268 4,8 km/h (1 Bft)
31.08.2021 04:40 11,8 C 92 % 1017,5 hPa 0,0 mm W 268 4,8 km/h (1 Bft)
31.08.2021 04:45 11,8 C 92 % 1017,4 hPa 0,0 mm W 268 4,8 km/h (1 Bft)
31.08.2021 04:50 11,8 C 92 % 1017,4 hPa 0,0 mm W 268 4,8 km/h (1 Bft)
31.08.2021 04:55 11,8 C 92 % 1017,4 hPa 0,0 mm W 268 3,2 km/h (1 Bft)
31.08.2021 05:00 11,8 C 92 % 1017,4 hPa 0,0 mm W 268 3,2 km/h (1 Bft)
31.08.2021 05:05 11,8 C 92 % 1017,3 hPa 0,0 mm W 268 3,2 km/h (1 Bft)
31.08.2021 05:10 11,8 C 92 % 1017,3 hPa 0,0 mm W 268 3,2 km/h (1 Bft)
31.08.2021 05:15 11,8 C 92 % 1017,3 hPa 0,0 mm W 268 3,2 km/h (1 Bft)
31.08.2021 05:20 11,8 C 92 % 1017,3 hPa 0,0 mm W 268 3,2 km/h (1 Bft)
31.08.2021 05:25 11,8 C 92 % 1017,4 hPa 0,0 mm W 268 3,2 km/h (1 Bft)
31.08.2021 05:30 11,8 C 92 % 1017,5 hPa 0,0 mm W 268 1,6 km/h (1 Bft)
31.08.2021 05:35 11,8 C 92 % 1017,5 hPa 0,0 mm W 268 1,6 km/h (1 Bft)
31.08.2021 05:40 11,8 C 92 % 1017,5 hPa 0,0 mm W 268 0,0 km/h (0 Bft)
31.08.2021 05:45 11,8 C 92 % 1017,6 hPa 0,0 mm W 268 1,6 km/h (1 Bft)
31.08.2021 05:50 11,8 C 92 % 1017,6 hPa 0,0 mm W 268 3,2 km/h (1 Bft)
31.08.2021 05:55 11,9 C 92 % 1017,7 hPa 0,0 mm W 268 4,8 km/h (1 Bft)
31.08.2021 06:00 11,9 C 92 % 1017,7 hPa 0,0 mm W 268 4,8 km/h (1 Bft)
31.08.2021 06:05 11,9 C 92 % 1017,7 hPa 0,0 mm W 268 6,4 km/h (2 Bft)
31.08.2021 06:10 11,9 C 92 % 1017,7 hPa 0,0 mm W 268 4,8 km/h (1 Bft)
31.08.2021 06:15 11,9 C 92 % 1017,8 hPa 0,0 mm W 268 3,2 km/h (1 Bft)
31.08.2021 06:20 11,9 C 92 % 1017,8 hPa 0,0 mm W 268 4,8 km/h (1 Bft)
31.08.2021 06:25 11,9 C 92 % 1017,8 hPa 0,0 mm W 268 6,4 km/h (2 Bft)
31.08.2021 06:30 11,9 C 92 % 1017,8 hPa 0,0 mm W-SW 255 9,7 km/h (2 Bft)
31.08.2021 06:35 11,9 C 92 % 1017,9 hPa 0,0 mm W 277 8,0 km/h (2 Bft)
31.08.2021 06:40 11,9 C 92 % 1017,9 hPa 0,0 mm W 262 12,9 km/h (3 Bft)
31.08.2021 06:45 12,0 C 92 % 1018,0 hPa 0,0 mm W 276 12,9 km/h (3 Bft)
31.08.2021 06:50 12,1 C 92 % 1018,2 hPa 0,0 mm W 275 19,3 km/h (3 Bft)
31.08.2021 06:55 12,1 C 92 % 1018,2 hPa 0,2 mm W 265 17,7 km/h (3 Bft)
31.08.2021 07:00 12,1 C 92 % 1018,3 hPa 0,0 mm W 281 14,5 km/h (3 Bft)
31.08.2021 07:05 12,2 C 92 % 1018,3 hPa 0,0 mm W-SW 243 11,3 km/h (2 Bft)
31.08.2021 07:10 12,2 C 92 % 1018,3 hPa 0,0 mm W 271 14,5 km/h (3 Bft)
31.08.2021 07:15 12,2 C 92 % 1018,4 hPa 0,0 mm W 272 16,1 km/h (3 Bft)
31.08.2021 07:20 12,2 C 92 % 1018,4 hPa 0,0 mm W 263 9,7 km/h (2 Bft)
31.08.2021 07:25 12,2 C 92 % 1018,5 hPa 0,0 mm W 270 8,0 km/h (2 Bft)
31.08.2021 07:30 12,2 C 92 % 1018,6 hPa 0,0 mm W 279 14,5 km/h (3 Bft)
31.08.2021 07:35 12,2 C 92 % 1018,6 hPa 0,0 mm W 268 14,5 km/h (3 Bft)
31.08.2021 07:40 12,3 C 92 % 1018,7 hPa 0,0 mm W 263 14,5 km/h (3 Bft)
31.08.2021 07:45 12,3 C 92 % 1018,8 hPa 0,0 mm W 271 11,3 km/h (2 Bft)
31.08.2021 07:50 12,3 C 92 % 1018,8 hPa 0,0 mm W-SW 257 14,5 km/h (3 Bft)
31.08.2021 07:55 12,3 C 92 % 1018,8 hPa 0,0 mm W 265 11,3 km/h (2 Bft)
31.08.2021 08:00 12,3 C 92 % 1018,8 hPa 0,0 mm W 269 12,9 km/h (3 Bft)
31.08.2021 08:05 12,4 C 92 % 1018,8 hPa 0,0 mm W 278 12,9 km/h (3 Bft)
31.08.2021 08:10 12,4 C 92 % 1018,9 hPa 0,0 mm W-SW 248 14,5 km/h (3 Bft)
31.08.2021 08:15 12,4 C 93 % 1018,9 hPa 0,0 mm W 274 12,9 km/h (3 Bft)
31.08.2021 08:20 12,5 C 93 % 1019,0 hPa 0,0 mm W-NW 288 16,1 km/h (3 Bft)
31.08.2021 08:25 12,5 C 93 % 1019,0 hPa 0,0 mm W 273 8,0 km/h (2 Bft)
31.08.2021 08:30 12,5 C 93 % 1019,0 hPa 0,0 mm W 269 11,3 km/h (2 Bft)
31.08.2021 08:35 12,5 C 93 % 1019,0 hPa 0,0 mm W 275 9,7 km/h (2 Bft)
31.08.2021 08:40 12,5 C 93 % 1019,0 hPa 0,0 mm W-SW 257 8,0 km/h (2 Bft)
31.08.2021 08:45 12,5 C 93 % 1019,1 hPa 0,0 mm W-SW 240 9,7 km/h (2 Bft)
31.08.2021 08:50 12,5 C 93 % 1019,0 hPa 0,0 mm W-SW 252 9,7 km/h (2 Bft)
31.08.2021 08:55 12,5 C 93 % 1019,0 hPa 0,0 mm W 271 9,7 km/h (2 Bft)
31.08.2021 09:00 12,5 C 93 % 1019,0 hPa 0,0 mm W 269 11,3 km/h (2 Bft)
31.08.2021 09:05 12,5 C 93 % 1019,0 hPa 0,2 mm SW 229 12,9 km/h (3 Bft)
31.08.2021 09:10 12,5 C 93 % 1019,0 hPa 0,0 mm W-NW 301 14,5 km/h (3 Bft)
31.08.2021 09:15 12,5 C 93 % 1019,1 hPa 0,0 mm W 279 11,3 km/h (2 Bft)
31.08.2021 09:20 12,5 C 93 % 1019,1 hPa 0,0 mm W 269 12,9 km/h (3 Bft)
31.08.2021 09:25 12,5 C 93 % 1019,2 hPa 0,0 mm W 276 11,3 km/h (2 Bft)
31.08.2021 09:30 12,6 C 93 % 1019,2 hPa 0,0 mm W 277 12,9 km/h (3 Bft)
31.08.2021 09:35 12,6 C 93 % 1019,2 hPa 0,0 mm W-NW 289 8,0 km/h (2 Bft)
31.08.2021 09:40 12,7 C 93 % 1019,2 hPa 0,0 mm W 275 8,0 km/h (2 Bft)
31.08.2021 09:45 12,7 C 92 % 1019,2 hPa 0,0 mm W-SW 253 12,9 km/h (3 Bft)
31.08.2021 09:50 12,8 C 93 % 1019,2 hPa 0,0 mm W 265 12,9 km/h (3 Bft)
31.08.2021 09:55 12,8 C 93 % 1019,2 hPa 0,0 mm NW 304 12,9 km/h (3 Bft)
31.08.2021 10:00 12,9 C 93 % 1019,3 hPa 0,0 mm W 276 9,7 km/h (2 Bft)
31.08.2021 10:05 12,9 C 93 % 1019,3 hPa 0,0 mm W 266 11,3 km/h (2 Bft)
31.08.2021 10:10 13,0 C 93 % 1019,3 hPa 0,0 mm W 275 12,9 km/h (3 Bft)
31.08.2021 10:15 13,1 C 93 % 1019,3 hPa 0,0 mm W 273 12,9 km/h (3 Bft)
31.08.2021 10:20 13,1 C 93 % 1019,4 hPa 0,0 mm W 263 16,1 km/h (3 Bft)
31.08.2021 10:25 13,1 C 93 % 1019,4 hPa 0,0 mm W-SW 246 16,1 km/h (3 Bft)
31.08.2021 10:30 13,1 C 93 % 1019,5 hPa 0,0 mm W 271 17,7 km/h (3 Bft)
31.08.2021 10:35 13,1 C 93 % 1019,5 hPa 0,0 mm W-NW 286 12,9 km/h (3 Bft)
31.08.2021 10:40 13,1 C 93 % 1019,5 hPa 0,0 mm W 273 16,1 km/h (3 Bft)
31.08.2021 10:45 13,1 C 93 % 1019,6 hPa 0,0 mm W 269 17,7 km/h (3 Bft)
31.08.2021 10:50 13,1 C 93 % 1019,6 hPa 0,0 mm W 267 16,1 km/h (3 Bft)
31.08.2021 10:55 13,1 C 93 % 1019,6 hPa 0,0 mm W-SW 252 19,3 km/h (3 Bft)
31.08.2021 11:00 13,0 C 93 % 1019,7 hPa 0,0 mm W 261 14,5 km/h (3 Bft)
31.08.2021 11:05 12,9 C 93 % 1019,7 hPa 0,0 mm W 272 17,7 km/h (3 Bft)
31.08.2021 11:10 12,9 C 93 % 1019,8 hPa 0,0 mm W 271 12,9 km/h (3 Bft)
31.08.2021 11:15 12,9 C 93 % 1019,8 hPa 0,0 mm W 273 11,3 km/h (2 Bft)
31.08.2021 11:20 12,9 C 93 % 1019,8 hPa 0,0 mm W 272 9,7 km/h (2 Bft)
31.08.2021 11:25 12,9 C 93 % 1019,8 hPa 0,0 mm W 273 11,3 km/h (2 Bft)
31.08.2021 11:30 12,9 C 93 % 1019,8 hPa 0,2 mm W 279 16,1 km/h (3 Bft)
31.08.2021 11:35 13,0 C 93 % 1019,9 hPa 0,0 mm W-SW 258 11,3 km/h (2 Bft)
31.08.2021 11:40 13,1 C 93 % 1019,8 hPa 0,0 mm W 265 16,1 km/h (3 Bft)
31.08.2021 11:45 13,2 C 93 % 1019,9 hPa 0,0 mm W 263 14,5 km/h (3 Bft)
31.08.2021 11:50 13,3 C 93 % 1019,9 hPa 0,0 mm W 269 16,1 km/h (3 Bft)
31.08.2021 11:55 13,4 C 93 % 1019,9 hPa 0,0 mm W 262 14,5 km/h (3 Bft)
31.08.2021 12:00 13,5 C 93 % 1020,0 hPa 0,0 mm W-SW 252 12,9 km/h (3 Bft)
31.08.2021 12:05 13,7 C 93 % 1020,0 hPa 0,0 mm W 270 14,5 km/h (3 Bft)
31.08.2021 12:10 13,8 C 93 % 1020,0 hPa 0,0 mm W 263 17,7 km/h (3 Bft)
31.08.2021 12:15 13,8 C 93 % 1020,1 hPa 0,0 mm W 266 16,1 km/h (3 Bft)
31.08.2021 12:20 13,8 C 93 % 1020,1 hPa 0,0 mm W 264 12,9 km/h (3 Bft)
31.08.2021 12:25 13,9 C 93 % 1020,1 hPa 0,0 mm W 268 11,3 km/h (2 Bft)
31.08.2021 12:30 13,9 C 93 % 1020,1 hPa 0,0 mm W-SW 256 14,5 km/h (3 Bft)
31.08.2021 12:35 13,9 C 93 % 1020,1 hPa 0,0 mm W 259 12,9 km/h (3 Bft)
31.08.2021 12:40 13,9 C 93 % 1020,2 hPa 0,0 mm W 269 8,0 km/h (2 Bft)
31.08.2021 12:45 13,9 C 93 % 1020,2 hPa 0,0 mm W 276 12,9 km/h (3 Bft)
31.08.2021 12:50 13,9 C 93 % 1020,3 hPa 0,2 mm W 276 6,4 km/h (2 Bft)
31.08.2021 12:55 13,9 C 93 % 1020,3 hPa 0,0 mm W 276 4,8 km/h (1 Bft)
31.08.2021 13:00 13,9 C 93 % 1020,3 hPa 0,0 mm W 276 4,8 km/h (1 Bft)
31.08.2021 13:05 13,9 C 93 % 1020,3 hPa 0,0 mm W 260 14,5 km/h (3 Bft)
31.08.2021 13:10 13,9 C 93 % 1020,2 hPa 0,0 mm W 270 9,7 km/h (2 Bft)
31.08.2021 13:15 13,9 C 93 % 1020,2 hPa 0,0 mm W 279 9,7 km/h (2 Bft)
31.08.2021 13:20 13,9 C 93 % 1020,3 hPa 0,0 mm W 267 12,9 km/h (3 Bft)
31.08.2021 13:25 14,0 C 93 % 1020,4 hPa 0,0 mm W 262 14,5 km/h (3 Bft)
31.08.2021 13:30 14,0 C 93 % 1020,5 hPa 0,0 mm W 271 9,7 km/h (2 Bft)
31.08.2021 13:35 14,0 C 93 % 1020,4 hPa 0,0 mm W 263 11,3 km/h (2 Bft)
31.08.2021 13:40 14,1 C 93 % 1020,5 hPa 0,0 mm W 267 6,4 km/h (2 Bft)
31.08.2021 13:45 14,1 C 93 % 1020,5 hPa 0,0 mm W 269 9,7 km/h (2 Bft)
31.08.2021 13:50 14,1 C 93 % 1020,6 hPa 0,0 mm W 270 14,5 km/h (3 Bft)
31.08.2021 13:55 14,2 C 93 % 1020,7 hPa 0,0 mm W 262 9,7 km/h (2 Bft)
31.08.2021 14:00 14,2 C 93 % 1020,6 hPa 0,0 mm W 272 12,9 km/h (3 Bft)
31.08.2021 14:05 14,2 C 93 % 1020,6 hPa 0,0 mm W-SW 257 17,7 km/h (3 Bft)
31.08.2021 14:10 14,2 C 93 % 1020,7 hPa 0,0 mm W 266 14,5 km/h (3 Bft)
31.08.2021 14:15 14,2 C 93 % 1020,6 hPa 0,0 mm W 274 11,3 km/h (2 Bft)
31.08.2021 14:20 14,2 C 93 % 1020,6 hPa 0,0 mm W 261 11,3 km/h (2 Bft)
31.08.2021 14:25 14,2 C 93 % 1020,7 hPa 0,0 mm W 262 8,0 km/h (2 Bft)
31.08.2021 14:30 14,2 C 93 % 1020,7 hPa 0,0 mm W 277 11,3 km/h (2 Bft)
31.08.2021 14:35 14,2 C 93 % 1020,7 hPa 0,0 mm W 277 11,3 km/h (2 Bft)
31.08.2021 14:40 14,1 C 93 % 1020,7 hPa 0,0 mm W 268 12,9 km/h (3 Bft)
31.08.2021 14:45 14,2 C 93 % 1020,7 hPa 0,0 mm W-SW 252 12,9 km/h (3 Bft)
31.08.2021 14:50 14,2 C 93 % 1020,7 hPa 0,0 mm W-SW 254 12,9 km/h (3 Bft)
31.08.2021 14:55 14,1 C 92 % 1020,7 hPa 0,0 mm W 267 14,5 km/h (3 Bft)
31.08.2021 15:00 14,1 C 92 % 1020,7 hPa 0,2 mm W 279 11,3 km/h (2 Bft)
31.08.2021 15:05 14,2 C 93 % 1020,6 hPa 0,0 mm SW 234 11,3 km/h (2 Bft)
31.08.2021 15:10 14,2 C 93 % 1020,7 hPa 0,0 mm W 268 11,3 km/h (2 Bft)
31.08.2021 15:15 14,3 C 93 % 1020,7 hPa 0,0 mm W-NW 287 6,4 km/h (2 Bft)
31.08.2021 15:20 14,3 C 93 % 1020,7 hPa 0,0 mm W 269 9,7 km/h (2 Bft)
31.08.2021 15:25 14,4 C 93 % 1020,7 hPa 0,0 mm W 276 9,7 km/h (2 Bft)
31.08.2021 15:30 14,4 C 93 % 1020,7 hPa 0,0 mm W-SW 256 12,9 km/h (3 Bft)
31.08.2021 15:35 14,4 C 93 % 1020,8 hPa 0,0 mm W 265 9,7 km/h (2 Bft)
31.08.2021 15:40 14,4 C 93 % 1020,7 hPa 0,0 mm W 269 8,0 km/h (2 Bft)
31.08.2021 15:45 14,4 C 93 % 1020,7 hPa 0,0 mm W 266 8,0 km/h (2 Bft)
31.08.2021 15:50 14,4 C 93 % 1020,8 hPa 0,0 mm W 277 9,7 km/h (2 Bft)
31.08.2021 15:55 14,4 C 93 % 1020,8 hPa 0,0 mm W-SW 247 14,5 km/h (3 Bft)
31.08.2021 16:00 14,4 C 93 % 1020,8 hPa 0,0 mm W 275 8,0 km/h (2 Bft)
31.08.2021 16:05 14,5 C 92 % 1020,9 hPa 0,0 mm W 259 9,7 km/h (2 Bft)
31.08.2021 16:10 14,6 C 92 % 1021,0 hPa 0,0 mm W 263 9,7 km/h (2 Bft)
31.08.2021 16:15 14,6 C 92 % 1021,0 hPa 0,0 mm W 265 8,0 km/h (2 Bft)
31.08.2021 16:20 14,6 C 92 % 1021,0 hPa 0,2 mm W 260 19,3 km/h (3 Bft)
31.08.2021 16:25 14,6 C 92 % 1021,0 hPa 0,0 mm W-NW 292 11,3 km/h (2 Bft)
31.08.2021 16:30 14,6 C 92 % 1021,0 hPa 0,0 mm W-NW 287 14,5 km/h (3 Bft)
31.08.2021 16:35 14,6 C 92 % 1021,0 hPa 0,0 mm W 261 8,0 km/h (2 Bft)
31.08.2021 16:40 14,6 C 92 % 1021,0 hPa 0,0 mm W-SW 254 11,3 km/h (2 Bft)
31.08.2021 16:45 14,6 C 92 % 1021,1 hPa 0,0 mm W 263 9,7 km/h (2 Bft)
31.08.2021 16:50 14,6 C 92 % 1021,1 hPa 0,0 mm W 267 9,7 km/h (2 Bft)
31.08.2021 16:55 14,6 C 92 % 1021,2 hPa 0,0 mm W 272 8,0 km/h (2 Bft)
31.08.2021 17:00 14,5 C 92 % 1021,2 hPa 0,0 mm W 272 16,1 km/h (3 Bft)
31.08.2021 17:05 14,5 C 92 % 1021,2 hPa 0,0 mm W 266 8,0 km/h (2 Bft)
31.08.2021 17:10 14,5 C 92 % 1021,3 hPa 0,0 mm W 263 9,7 km/h (2 Bft)
31.08.2021 17:15 14,5 C 92 % 1021,2 hPa 0,0 mm W 273 9,7 km/h (2 Bft)
31.08.2021 17:20 14,5 C 92 % 1021,2 hPa 0,0 mm W 259 9,7 km/h (2 Bft)
31.08.2021 17:25 14,4 C 92 % 1021,2 hPa 0,0 mm W 273 11,3 km/h (2 Bft)
31.08.2021 17:30 14,4 C 92 % 1021,2 hPa 0,0 mm W 279 12,9 km/h (3 Bft)
31.08.2021 17:35 14,4 C 92 % 1021,2 hPa 0,0 mm W 263 11,3 km/h (2 Bft)
31.08.2021 17:40 14,3 C 92 % 1021,3 hPa 0,0 mm W-SW 258 9,7 km/h (2 Bft)
31.08.2021 17:45 14,4 C 92 % 1021,3 hPa 0,0 mm W-SW 244 9,7 km/h (2 Bft)
31.08.2021 17:50 14,4 C 92 % 1021,3 hPa 0,2 mm W 275 6,4 km/h (2 Bft)
31.08.2021 17:55 14,4 C 92 % 1021,3 hPa 0,0 mm W 277 8,0 km/h (2 Bft)
31.08.2021 18:00 14,4 C 92 % 1021,2 hPa 0,0 mm W-NW 301 9,7 km/h (2 Bft)
31.08.2021 18:05 14,4 C 92 % 1021,2 hPa 0,0 mm W-NW 293 9,7 km/h (2 Bft)
31.08.2021 18:10 14,4 C 92 % 1021,2 hPa 0,0 mm W-NW 293 4,8 km/h (1 Bft)
31.08.2021 18:15 14,4 C 92 % 1021,3 hPa 0,0 mm W-NW 291 6,4 km/h (2 Bft)
31.08.2021 18:20 14,4 C 92 % 1021,3 hPa 0,0 mm W-SW 255 6,4 km/h (2 Bft)
31.08.2021 18:25 14,4 C 92 % 1021,4 hPa 0,0 mm W-SW 255 4,8 km/h (1 Bft)
31.08.2021 18:30 14,4 C 92 % 1021,4 hPa 0,0 mm W-SW 255 4,8 km/h (1 Bft)
31.08.2021 18:35 14,4 C 92 % 1021,4 hPa 0,0 mm W 259 6,4 km/h (2 Bft)
31.08.2021 18:40 14,3 C 92 % 1021,5 hPa 0,0 mm W 259 8,0 km/h (2 Bft)
31.08.2021 18:45 14,3 C 92 % 1021,5 hPa 0,0 mm W 259 3,2 km/h (1 Bft)
31.08.2021 18:50 14,3 C 92 % 1021,5 hPa 0,0 mm W 259 4,8 km/h (1 Bft)
31.08.2021 18:55 14,3 C 92 % 1021,5 hPa 0,2 mm W 259 6,4 km/h (2 Bft)
31.08.2021 19:00 14,2 C 92 % 1021,5 hPa 0,0 mm W 275 9,7 km/h (2 Bft)
31.08.2021 19:05 14,2 C 92 % 1021,5 hPa 0,0 mm W 268 8,0 km/h (2 Bft)
31.08.2021 19:10 14,2 C 92 % 1021,4 hPa 0,0 mm W-SW 257 8,0 km/h (2 Bft)
31.08.2021 19:15 14,1 C 92 % 1021,5 hPa 0,0 mm W 271 9,7 km/h (2 Bft)
31.08.2021 19:20 14,1 C 92 % 1021,5 hPa 0,0 mm W 280 9,7 km/h (2 Bft)
31.08.2021 19:25 14,1 C 92 % 1021,6 hPa 0,0 mm W 277 9,7 km/h (2 Bft)
31.08.2021 19:30 14,0 C 92 % 1021,7 hPa 0,0 mm W 263 11,3 km/h (2 Bft)
31.08.2021 19:35 13,9 C 92 % 1021,8 hPa 0,0 mm W 281 9,7 km/h (2 Bft)
31.08.2021 19:40 13,9 C 92 % 1021,9 hPa 0,0 mm W 272 9,7 km/h (2 Bft)
31.08.2021 19:45 13,8 C 92 % 1022,0 hPa 0,0 mm W 269 9,7 km/h (2 Bft)
31.08.2021 19:50 13,8 C 92 % 1022,0 hPa 0,0 mm W 267 9,7 km/h (2 Bft)
31.08.2021 19:55 13,8 C 91 % 1022,0 hPa 0,0 mm W 274 8,0 km/h (2 Bft)
31.08.2021 20:00 13,7 C 91 % 1022,1 hPa 0,0 mm W 272 6,4 km/h (2 Bft)
31.08.2021 20:05 13,7 C 91 % 1022,2 hPa 0,0 mm W 273 6,4 km/h (2 Bft)
31.08.2021 20:10 13,6 C 91 % 1022,3 hPa 0,0 mm W 275 8,0 km/h (2 Bft)
31.08.2021 20:15 13,6 C 91 % 1022,3 hPa 0,0 mm W 275 6,4 km/h (2 Bft)
31.08.2021 20:20 13,5 C 91 % 1022,3 hPa 0,0 mm W 275 4,8 km/h (1 Bft)
31.08.2021 20:25 13,5 C 92 % 1022,6 hPa 0,0 mm W 267 6,4 km/h (2 Bft)
31.08.2021 20:30 13,4 C 91 % 1022,6 hPa 0,0 mm W 268 6,4 km/h (2 Bft)
31.08.2021 20:35 13,4 C 91 % 1022,7 hPa 0,0 mm W 268 6,4 km/h (2 Bft)
31.08.2021 20:40 13,3 C 91 % 1022,8 hPa 0,0 mm W 279 6,4 km/h (2 Bft)
31.08.2021 20:45 13,3 C 91 % 1022,8 hPa 0,0 mm W-NW 292 8,0 km/h (2 Bft)
31.08.2021 20:50 13,2 C 91 % 1022,9 hPa 0,2 mm W 268 8,0 km/h (2 Bft)
31.08.2021 20:55 13,2 C 91 % 1022,9 hPa 0,0 mm W 269 11,3 km/h (2 Bft)
31.08.2021 21:00 13,2 C 91 % 1022,9 hPa 0,0 mm W 261 8,0 km/h (2 Bft)
31.08.2021 21:05 13,1 C 92 % 1022,9 hPa 0,0 mm W 263 8,0 km/h (2 Bft)
31.08.2021 21:10 13,1 C 92 % 1022,9 hPa 0,0 mm W-SW 240 8,0 km/h (2 Bft)
31.08.2021 21:15 13,1 C 92 % 1023,0 hPa 0,0 mm W 265 9,7 km/h (2 Bft)
31.08.2021 21:20 13,0 C 91 % 1023,0 hPa 0,0 mm W 265 8,0 km/h (2 Bft)
31.08.2021 21:25 13,0 C 91 % 1023,0 hPa 0,0 mm W-NW 298 8,0 km/h (2 Bft)
31.08.2021 21:30 12,9 C 91 % 1023,2 hPa 0,0 mm W-SW 241 8,0 km/h (2 Bft)
31.08.2021 21:35 12,9 C 91 % 1023,3 hPa 0,0 mm W 281 6,4 km/h (2 Bft)
31.08.2021 21:40 12,9 C 91 % 1023,1 hPa 0,0 mm W 266 8,0 km/h (2 Bft)
31.08.2021 21:45 12,8 C 91 % 1023,2 hPa 0,0 mm W 269 8,0 km/h (2 Bft)
31.08.2021 21:50 12,8 C 92 % 1023,3 hPa 0,0 mm W 269 6,4 km/h (2 Bft)
31.08.2021 21:55 12,8 C 92 % 1023,3 hPa 0,0 mm W 269 6,4 km/h (2 Bft)
31.08.2021 22:00 12,8 C 92 % 1023,3 hPa 0,0 mm W 269 6,4 km/h (2 Bft)
31.08.2021 22:05 12,7 C 92 % 1023,3 hPa 0,0 mm W 269 3,2 km/h (1 Bft)
31.08.2021 22:10 12,7 C 92 % 1023,3 hPa 0,2 mm W 269 0,0 km/h (0 Bft)
31.08.2021 22:15 12,7 C 92 % 1023,3 hPa 0,0 mm W 269 4,8 km/h (1 Bft)
31.08.2021 22:20 12,7 C 91 % 1023,4 hPa 0,0 mm W 269 1,6 km/h (1 Bft)
31.08.2021 22:25 12,7 C 91 % 1023,4 hPa 0,0 mm W 269 0,0 km/h (0 Bft)
31.08.2021 22:30 12,7 C 92 % 1023,4 hPa 0,0 mm W 269 0,0 km/h (0 Bft)
31.08.2021 22:35 12,6 C 92 % 1023,3 hPa 0,0 mm W 269 0,0 km/h (0 Bft)
31.08.2021 22:40 12,6 C 92 % 1023,4 hPa 0,0 mm W 269 0,0 km/h (0 Bft)
31.08.2021 22:45 12,6 C 92 % 1023,5 hPa 0,0 mm W 269 0,0 km/h (0 Bft)
31.08.2021 22:50 12,6 C 92 % 1023,5 hPa 0,0 mm W 269 0,0 km/h (0 Bft)
31.08.2021 22:55 12,6 C 92 % 1023,6 hPa 0,0 mm W 269 0,0 km/h (0 Bft)
31.08.2021 23:00 12,5 C 92 % 1023,6 hPa 0,0 mm W 269 0,0 km/h (0 Bft)
31.08.2021 23:05 12,5 C 92 % 1023,6 hPa 0,0 mm W 269 0,0 km/h (0 Bft)
31.08.2021 23:10 12,4 C 92 % 1023,6 hPa 0,0 mm W 269 0,0 km/h (0 Bft)
31.08.2021 23:15 12,4 C 92 % 1023,7 hPa 0,0 mm W 269 3,2 km/h (1 Bft)
31.08.2021 23:20 12,4 C 92 % 1023,6 hPa 0,0 mm W 269 3,2 km/h (1 Bft)
31.08.2021 23:25 12,4 C 92 % 1023,6 hPa 0,0 mm W 269 3,2 km/h (1 Bft)
31.08.2021 23:30 12,4 C 92 % 1023,6 hPa 0,0 mm W 269 3,2 km/h (1 Bft)
31.08.2021 23:35 12,4 C 92 % 1023,7 hPa 0,0 mm W 269 1,6 km/h (1 Bft)
31.08.2021 23:40 12,4 C 92 % 1023,6 hPa 0,0 mm W 269 1,6 km/h (1 Bft)
31.08.2021 23:45 12,4 C 92 % 1023,5 hPa 0,0 mm W 269 3,2 km/h (1 Bft)
31.08.2021 23:50 12,4 C 92 % 1023,5 hPa 0,0 mm W 269 4,8 km/h (1 Bft)
31.08.2021 23:55 12,3 C 92 % 1023,6 hPa 0,2 mm W 269 4,8 km/h (1 Bft)
_ Min-Zeit 00:50 00:00 05:05 - - - 00:35
Minimum _ 11,2 C 91 % 1017,3 hPa - - - 0,0 km/h (0 Bft)
_ Max-Zeit 16:10 08:15 23:15 03:10 - - 06:50
Maximum _ 14,6 C 93 % 1023,7 hPa 0,2 mm - - 19,3 km/h
W-NW (3 Bft)
Durchschnitt _ 12,9 C 92 % 1020,0 hPa #2,4 mm W - 7,8 km/h (2 Bft)